DAL2311 KLAX-KSLC

Flight info

Callsign DAL2311
Flight time N/A
Altitude 37000
Route ORCKA5 LAS Q70 BLIPP Q842 WINEN MLF QWENN6
Aircraft A320/M-SDE3FGHIRWY/LB1

Departure

Time 2026-04-25 15:54
Airport Los Angeles International Airport (KLAX)

Arrival

Time N/A
Airport Salt Lake City International Airport (KSLC)
Time Latitude Longitude Altitude Speed Heading
2026-04-25 15:28 33.94722 -118.40658 126 ft 0 kts 263°
2026-04-25 15:46 33.94723 -118.40644 121 ft 3 kts 261°
2026-04-25 15:46 33.94726 -118.40624 124 ft 1 kts 254°
2026-04-25 15:47 33.94728 -118.40617 122 ft 2 kts 254°
2026-04-25 15:48 33.94731 -118.40604 122 ft 2 kts 287°
2026-04-25 15:48 33.94722 -118.40588 123 ft 2 kts 348°
2026-04-25 15:48 33.94718 -118.40586 124 ft 0 kts 359°
2026-04-25 15:49 33.94721 -118.40586 124 ft 3 kts 359°
2026-04-25 15:50 33.94813 -118.40594 123 ft 15 kts 352°
2026-04-25 15:50 33.94875 -118.40477 123 ft 21 kts 82°
2026-04-25 15:50 33.94897 -118.40288 126 ft 25 kts 82°
2026-04-25 15:50 33.94921 -118.40054 126 ft 27 kts 83°
2026-04-25 15:51 33.94952 -118.39931 124 ft 0 kts 42°
2026-04-25 15:53 33.95008 -118.39917 123 ft 20 kts 345°
2026-04-25 15:53 33.95032 -118.40060 122 ft 21 kts 261°
2026-04-25 15:53 33.94975 -118.40520 123 ft 90 kts 262°
2026-04-25 15:54 33.94875 -118.41509 121 ft 145 kts 262°
2026-04-25 15:54 33.94722 -118.42862 327 ft 175 kts 262°
2026-04-25 15:54 33.94551 -118.44426 641 ft 198 kts 261°
2026-04-25 15:54 33.94388 -118.45987 911 ft 184 kts 262°
2026-04-25 15:55 33.94217 -118.47624 1214 ft 209 kts 261°
2026-04-25 15:55 33.94022 -118.49423 1482 ft 228 kts 261°
2026-04-25 15:55 33.93806 -118.51364 1940 ft 244 kts 261°
2026-04-25 15:55 33.93576 -118.53454 2704 ft 256 kts 261°
2026-04-25 15:56 33.93348 -118.55614 3631 ft 262 kts 261°
2026-04-25 15:56 33.93115 -118.57805 4621 ft 264 kts 261°
2026-04-25 15:56 33.92853 -118.60000 5620 ft 265 kts 258°
2026-04-25 15:56 33.92133 -118.62034 6583 ft 268 kts 235°
2026-04-25 15:57 33.90751 -118.63537 7514 ft 273 kts 211°
2026-04-25 15:57 33.88921 -118.64173 8450 ft 280 kts 185°
2026-04-25 15:57 33.86984 -118.63750 9355 ft 292 kts 159°
2026-04-25 15:57 33.85359 -118.62233 10197 ft 305 kts 130°
2026-04-25 15:58 33.84507 -118.59868 10955 ft 318 kts 99°
2026-04-25 15:58 33.84720 -118.57209 11669 ft 327 kts 69°
2026-04-25 15:58 33.85839 -118.54742 12066 ft 347 kts 55°
2026-04-25 15:58 33.87282 -118.52326 12447 ft 364 kts 51°
2026-04-25 15:59 33.88871 -118.49927 13100 ft 371 kts 49°
2026-04-25 15:59 33.90526 -118.47498 13793 ft 378 kts 49°
2026-04-25 15:59 33.92191 -118.45022 14418 ft 384 kts 50°
2026-04-25 15:59 33.93837 -118.42470 15104 ft 388 kts 52°
2026-04-25 16:00 33.95419 -118.39816 15784 ft 391 kts 54°
2026-04-25 16:00 33.95940 -118.38904 16009 ft 393 kts 54°
2026-04-25 16:00 33.98483 -118.34300 17174 ft 399 kts 56°
2026-04-25 16:00 34.00017 -118.31498 17875 ft 402 kts 56°
2026-04-25 16:01 34.01571 -118.28688 18544 ft 406 kts 55°
2026-04-25 16:01 34.03133 -118.25898 19092 ft 409 kts 55°
2026-04-25 16:01 34.04750 -118.23037 19665 ft 414 kts 55°
2026-04-25 16:01 34.06384 -118.20160 20231 ft 418 kts 55°
2026-04-25 16:02 34.08036 -118.17255 20794 ft 422 kts 55°
2026-04-25 16:02 34.09702 -118.14321 21343 ft 426 kts 55°
2026-04-25 16:02 34.11381 -118.11359 21886 ft 431 kts 55°
2026-04-25 16:02 34.13083 -118.08352 22429 ft 435 kts 55°
2026-04-25 16:03 34.14799 -118.05313 22968 ft 440 kts 56°
2026-04-25 16:03 34.16533 -118.02238 23517 ft 445 kts 56°
2026-04-25 16:03 34.18280 -117.99129 23984 ft 449 kts 56°
2026-04-25 16:03 34.20042 -117.95990 24457 ft 453 kts 56°
2026-04-25 16:04 34.21814 -117.92834 24906 ft 456 kts 56°
2026-04-25 16:04 34.23600 -117.89651 25360 ft 459 kts 56°
2026-04-25 16:04 34.25399 -117.86449 25816 ft 462 kts 56°
2026-04-25 16:04 34.27211 -117.83218 26259 ft 465 kts 56°
2026-04-25 16:05 34.29033 -117.79964 26719 ft 468 kts 56°
2026-04-25 16:05 34.30865 -117.76687 27133 ft 471 kts 56°
2026-04-25 16:05 34.34557 -117.70075 27972 ft 477 kts 56°
2026-04-25 16:06 34.36434 -117.66754 28366 ft 480 kts 54°
2026-04-25 16:06 34.38374 -117.63446 28736 ft 483 kts 53°
2026-04-25 16:06 34.40353 -117.60155 29098 ft 485 kts 53°
2026-04-25 16:06 34.42357 -117.56857 29469 ft 488 kts 52°
2026-04-25 16:07 34.44379 -117.53535 29837 ft 490 kts 52°
2026-04-25 16:07 34.45709 -117.51341 30065 ft 492 kts 53°
2026-04-25 16:07 34.48399 -117.46862 30452 ft 496 kts 53°
2026-04-25 16:07 34.50423 -117.43455 30744 ft 499 kts 53°
2026-04-25 16:08 34.52447 -117.40033 31020 ft 501 kts 53°
2026-04-25 16:08 34.54484 -117.36585 31284 ft 504 kts 53°
2026-04-25 16:08 34.56535 -117.33115 31545 ft 506 kts 53°
2026-04-25 16:08 34.58587 -117.29646 31908 ft 506 kts 53°
2026-04-25 16:09 34.60639 -117.26182 32293 ft 506 kts 53°
2026-04-25 16:09 34.62696 -117.22708 32639 ft 506 kts 53°
2026-04-25 16:09 34.64749 -117.19229 32987 ft 506 kts 53°
2026-04-25 16:09 34.66799 -117.15756 33334 ft 506 kts 53°
2026-04-25 16:10 34.68853 -117.12276 33680 ft 507 kts 53°
2026-04-25 16:10 34.70903 -117.08798 33999 ft 507 kts 53°
2026-04-25 16:10 34.72952 -117.05315 34259 ft 507 kts 53°
2026-04-25 16:10 34.75006 -117.01815 34574 ft 507 kts 53°
2026-04-25 16:11 34.77048 -116.98323 34869 ft 507 kts 53°
2026-04-25 16:11 34.79092 -116.94826 35156 ft 508 kts 53°
2026-04-25 16:11 34.81145 -116.91323 35435 ft 508 kts 53°
2026-04-25 16:11 34.83193 -116.87833 35693 ft 508 kts 52°
2026-04-25 16:12 34.85249 -116.84327 35953 ft 508 kts 52°
2026-04-25 16:12 34.87304 -116.80819 36195 ft 509 kts 52°
2026-04-25 16:12 34.89358 -116.77302 36436 ft 509 kts 52°
2026-04-25 16:12 34.90716 -116.74972 36593 ft 509 kts 52°
2026-04-25 16:13 34.93700 -116.70510 36832 ft 507 kts 44°
2026-04-25 16:13 34.98470 -116.64231 36851 ft 502 kts 43°
2026-04-25 16:14 35.03224 -116.58002 36836 ft 501 kts 44°
2026-04-25 16:14 35.07955 -116.51759 36843 ft 501 kts 44°
2026-04-25 16:15 35.12679 -116.45506 36856 ft 500 kts 44°
2026-04-25 16:15 35.17395 -116.39263 36845 ft 500 kts 44°
2026-04-25 16:16 35.22078 -116.33047 36844 ft 500 kts 44°
2026-04-25 16:16 35.26784 -116.26790 36846 ft 499 kts 44°
2026-04-25 16:17 35.31473 -116.20532 36836 ft 499 kts 44°
2026-04-25 16:17 35.36169 -116.14253 36828 ft 499 kts 44°
2026-04-25 16:18 35.40864 -116.07988 36840 ft 499 kts 44°
2026-04-25 16:18 35.45551 -116.01719 36841 ft 499 kts 44°
2026-04-25 16:19 35.50226 -115.95438 36844 ft 498 kts 44°
2026-04-25 16:19 35.54892 -115.89151 36847 ft 498 kts 44°
2026-04-25 16:20 35.61898 -115.79704 36849 ft 498 kts 44°
2026-04-25 16:21 35.68839 -115.70251 36843 ft 498 kts 44°
2026-04-25 16:21 35.73450 -115.63876 36843 ft 498 kts 44°
2026-04-25 16:22 35.78060 -115.57503 36843 ft 498 kts 44°
2026-04-25 16:22 35.82682 -115.51130 36846 ft 498 kts 44°
2026-04-25 16:23 35.87298 -115.44761 36843 ft 498 kts 44°
2026-04-25 16:23 35.91896 -115.38383 36838 ft 498 kts 44°
2026-04-25 16:24 35.96494 -115.31989 36840 ft 498 kts 44°
2026-04-25 16:24 36.01087 -115.25599 36845 ft 497 kts 44°
2026-04-25 16:25 36.05674 -115.19202 36827 ft 497 kts 44°
2026-04-25 16:25 36.10544 -115.13211 36831 ft 491 kts 35°
2026-04-25 16:26 36.15666 -115.07717 36830 ft 490 kts 36°
2026-04-25 16:26 36.20811 -115.02179 36785 ft 490 kts 36°
2026-04-25 16:27 36.25953 -114.96626 36790 ft 490 kts 35°
2026-04-25 16:27 36.31089 -114.91072 36788 ft 490 kts 35°
2026-04-25 16:28 36.36220 -114.85513 36763 ft 489 kts 36°
2026-04-25 16:28 36.41346 -114.79951 36751 ft 489 kts 36°
2026-04-25 16:29 36.46467 -114.74380 36738 ft 489 kts 36°
2026-04-25 16:29 36.51574 -114.68802 36740 ft 489 kts 36°
2026-04-25 16:30 36.56692 -114.63238 36735 ft 488 kts 35°
2026-04-25 16:30 36.61792 -114.57678 36741 ft 488 kts 36°
2026-04-25 16:31 36.66895 -114.52076 36745 ft 488 kts 36°
2026-04-25 16:31 36.72086 -114.46675 36745 ft 481 kts 27°
2026-04-25 16:32 36.77719 -114.42265 36752 ft 478 kts 25°
2026-04-25 16:32 36.83362 -114.37861 36756 ft 478 kts 25°
2026-04-25 16:33 36.88949 -114.33466 36763 ft 478 kts 25°
2026-04-25 16:33 36.94580 -114.29024 36758 ft 478 kts 25°
2026-04-25 16:34 37.00198 -114.24593 36773 ft 478 kts 25°
2026-04-25 16:34 37.05821 -114.20158 36777 ft 477 kts 25°
2026-04-25 16:35 37.10527 -114.16443 36779 ft 477 kts 25°
2026-04-25 16:35 37.16097 -114.12023 36784 ft 477 kts 26°
2026-04-25 16:36 37.21696 -114.07569 36792 ft 476 kts 26°
2026-04-25 16:36 37.27299 -114.03119 36799 ft 476 kts 26°
2026-04-25 16:37 37.32893 -113.98667 36623 ft 474 kts 26°
2026-04-25 16:37 37.35656 -113.96457 36271 ft 468 kts 26°
2026-04-25 16:37 37.38396 -113.94266 35757 ft 466 kts 26°
2026-04-25 16:37 37.41126 -113.92087 35209 ft 465 kts 26°
2026-04-25 16:38 37.43855 -113.89908 34875 ft 463 kts 26°
2026-04-25 16:38 37.49294 -113.85554 34815 ft 464 kts 26°
2026-04-25 16:39 37.54741 -113.81183 34831 ft 464 kts 26°
2026-04-25 16:39 37.60180 -113.76811 34828 ft 463 kts 27°
2026-04-25 16:40 37.65611 -113.72442 34841 ft 463 kts 26°
2026-04-25 16:40 37.71041 -113.68062 34840 ft 462 kts 26°
2026-04-25 16:41 37.76463 -113.63683 34851 ft 462 kts 27°
2026-04-25 16:41 37.84573 -113.57109 34852 ft 461 kts 26°
2026-04-25 16:42 37.89941 -113.52755 34851 ft 461 kts 26°
2026-04-25 16:42 37.95148 -113.47963 34848 ft 467 kts 37°
2026-04-25 16:43 37.99986 -113.42466 34845 ft 467 kts 37°
2026-04-25 16:43 38.04828 -113.36979 34842 ft 467 kts 37°
2026-04-25 16:44 38.09669 -113.31483 34844 ft 467 kts 37°
2026-04-25 16:44 38.14504 -113.25980 34846 ft 466 kts 37°
2026-04-25 16:45 38.19332 -113.20474 34871 ft 466 kts 37°
2026-04-25 16:45 38.24155 -113.14954 34893 ft 466 kts 37°
2026-04-25 16:46 38.28977 -113.09436 34920 ft 466 kts 37°
2026-04-25 16:46 38.33012 -113.04804 34939 ft 466 kts 36°
2026-04-25 16:47 38.36391 -113.01529 34944 ft 457 kts 24°
2026-04-25 16:47 38.39178 -112.99653 34941 ft 449 kts 16°
2026-04-25 16:47 38.44928 -112.96619 34946 ft 448 kts 15°
2026-04-25 16:48 38.50688 -112.93552 34944 ft 448 kts 15°
2026-04-25 16:48 38.56433 -112.90468 34925 ft 448 kts 15°
2026-04-25 16:49 38.62170 -112.87386 34907 ft 447 kts 15°
2026-04-25 16:49 38.67865 -112.84327 34881 ft 447 kts 15°
2026-04-25 16:50 38.73634 -112.81232 34868 ft 446 kts 15°
2026-04-25 16:50 38.79323 -112.78178 34848 ft 447 kts 15°
2026-04-25 16:51 38.82212 -112.76629 34220 ft 453 kts 15°
2026-04-25 16:51 38.85112 -112.75070 33709 ft 450 kts 15°
2026-04-25 16:51 38.87994 -112.73512 33203 ft 446 kts 15°
2026-04-25 16:51 38.89917 -112.72468 32875 ft 443 kts 15°
2026-04-25 16:52 38.93666 -112.70432 32234 ft 438 kts 15°
2026-04-25 16:52 38.96459 -112.68916 31758 ft 435 kts 15°
2026-04-25 16:52 38.99237 -112.67411 31288 ft 431 kts 14°
2026-04-25 16:52 39.01996 -112.65917 30821 ft 428 kts 14°
2026-04-25 16:53 39.07447 -112.62964 29901 ft 422 kts 14°
2026-04-25 16:53 39.10143 -112.61504 29425 ft 418 kts 14°
2026-04-25 16:53 39.12812 -112.60055 28998 ft 413 kts 14°
2026-04-25 16:54 39.15447 -112.58622 28574 ft 409 kts 14°
2026-04-25 16:54 39.18047 -112.57203 28179 ft 404 kts 15°
2026-04-25 16:54 39.20625 -112.55794 27784 ft 400 kts 15°
2026-04-25 16:54 39.23144 -112.54416 27375 ft 397 kts 15°
2026-04-25 16:55 39.25671 -112.53037 26986 ft 393 kts 15°
2026-04-25 16:55 39.28180 -112.51666 26550 ft 390 kts 15°
2026-04-25 16:55 39.30668 -112.50307 26132 ft 387 kts 16°
2026-04-25 16:55 39.33125 -112.48934 25703 ft 385 kts 17°
2026-04-25 16:56 39.35565 -112.47540 25273 ft 383 kts 18°
2026-04-25 16:56 39.37994 -112.46138 24822 ft 380 kts 18°
2026-04-25 16:56 39.40408 -112.44742 24361 ft 379 kts 18°
2026-04-25 16:56 39.42812 -112.43355 23909 ft 377 kts 19°
2026-04-25 16:57 39.45205 -112.41975 23437 ft 376 kts 19°
2026-04-25 16:57 39.46789 -112.41061 23091 ft 375 kts 19°
2026-04-25 16:57 39.49921 -112.39253 22497 ft 370 kts 19°
2026-04-25 16:57 39.52257 -112.37902 22050 ft 367 kts 19°
2026-04-25 16:58 39.54581 -112.36560 21610 ft 364 kts 19°
2026-04-25 16:58 39.56890 -112.35228 21178 ft 362 kts 19°
2026-04-25 16:58 39.59180 -112.33910 20750 ft 359 kts 19°
2026-04-25 16:58 39.61460 -112.32597 20328 ft 357 kts 19°
2026-04-25 16:59 39.63722 -112.31294 19907 ft 356 kts 19°
2026-04-25 16:59 39.65981 -112.29990 19485 ft 354 kts 19°
2026-04-25 16:59 39.68234 -112.28691 19063 ft 353 kts 19°
2026-04-25 16:59 39.70476 -112.27398 18652 ft 352 kts 19°
2026-04-25 17:00 39.72711 -112.26103 18249 ft 351 kts 19°
2026-04-25 17:00 39.74935 -112.24810 17832 ft 349 kts 19°
2026-04-25 17:00 39.77143 -112.23522 17437 ft 347 kts 19°
2026-04-25 17:00 39.79339 -112.22242 17041 ft 345 kts 19°
2026-04-25 17:01 39.81522 -112.20971 16651 ft 343 kts 19°
2026-04-25 17:01 39.83688 -112.19714 16266 ft 341 kts 19°
2026-04-25 17:01 39.85850 -112.18460 15876 ft 339 kts 19°
2026-04-25 17:01 39.87981 -112.17219 15509 ft 338 kts 19°
2026-04-25 17:02 39.90123 -112.15972 15133 ft 337 kts 19°
2026-04-25 17:02 39.92286 -112.14711 14756 ft 336 kts 19°
2026-04-25 17:02 39.94423 -112.13465 14382 ft 336 kts 20°
2026-04-25 17:02 39.96526 -112.12238 14010 ft 335 kts 19°
2026-04-25 17:03 39.98699 -112.11271 13807 ft 325 kts 12°
2026-04-25 17:03 40.00840 -112.10424 13611 ft 320 kts 12°
2026-04-25 17:03 40.02951 -112.09583 13472 ft 315 kts 12°
2026-04-25 17:03 40.05037 -112.08750 13288 ft 312 kts 12°
2026-04-25 17:04 40.07114 -112.07921 12919 ft 311 kts 12°
2026-04-25 17:04 40.09174 -112.07098 12562 ft 309 kts 13°
2026-04-25 17:04 40.11225 -112.06280 12222 ft 307 kts 13°
2026-04-25 17:04 40.13237 -112.05477 11845 ft 305 kts 13°
2026-04-25 17:05 40.15280 -112.04659 11489 ft 303 kts 14°
2026-04-25 17:05 40.19219 -112.03076 11160 ft 286 kts 14°
2026-04-25 17:05 40.21094 -112.02321 11039 ft 279 kts 13°
2026-04-25 17:06 40.22921 -112.01590 10950 ft 277 kts 14°
2026-04-25 17:06 40.24790 -112.00843 10955 ft 277 kts 14°
2026-04-25 17:06 40.26607 -112.00119 10963 ft 277 kts 14°
2026-04-25 17:06 40.28450 -111.99385 10967 ft 277 kts 13°
2026-04-25 17:07 40.30291 -111.98650 10961 ft 277 kts 13°
2026-04-25 17:07 40.32129 -111.97912 10958 ft 277 kts 14°
2026-04-25 17:07 40.33972 -111.97169 10959 ft 277 kts 14°
2026-04-25 17:07 40.35809 -111.96428 10954 ft 276 kts 14°
2026-04-25 17:08 40.37647 -111.95688 10952 ft 276 kts 14°
2026-04-25 17:08 40.39486 -111.94951 10963 ft 276 kts 13°
2026-04-25 17:08 40.41331 -111.94247 10966 ft 276 kts 13°
2026-04-25 17:08 40.43169 -111.93612 10959 ft 265 kts
2026-04-25 17:09 40.44950 -111.93512 10852 ft 254 kts 353°
2026-04-25 17:09 40.46733 -111.93732 10329 ft 261 kts 350°
2026-04-25 17:09 40.48548 -111.93973 9957 ft 262 kts 351°
2026-04-25 17:09 40.50359 -111.94185 9605 ft 261 kts 352°
2026-04-25 17:10 40.52165 -111.94391 9244 ft 260 kts 352°
2026-04-25 17:10 40.53969 -111.94597 8892 ft 259 kts 352°
2026-04-25 17:10 40.55701 -111.94796 8545 ft 246 kts 351°
2026-04-25 17:10 40.57360 -111.94986 8230 ft 234 kts 351°
2026-04-25 17:11 40.58955 -111.95170 7921 ft 226 kts 352°
2026-04-25 17:11 40.60493 -111.95348 7662 ft 217 kts 351°
2026-04-25 17:11 40.61969 -111.95518 7353 ft 209 kts 351°
2026-04-25 17:11 40.63389 -111.95682 7077 ft 199 kts 351°
2026-04-25 17:12 40.64719 -111.95835 6826 ft 186 kts 352°
2026-04-25 17:12 40.65976 -111.95981 6599 ft 182 kts 352°
2026-04-25 17:12 40.67240 -111.96129 6341 ft 183 kts 354°
2026-04-25 17:12 40.68510 -111.96276 6083 ft 183 kts 354°
2026-04-25 17:13 40.69781 -111.96423 5838 ft 183 kts 355°
2026-04-25 17:13 40.70191 -111.96470 5753 ft 183 kts 355°
2026-04-25 17:13 40.72304 -111.96715 5369 ft 181 kts 354°
2026-04-25 17:13 40.73548 -111.96864 5138 ft 175 kts 353°
2026-04-25 17:14 40.74769 -111.96987 4886 ft 175 kts 354°
2026-04-25 17:14 40.75965 -111.97088 4646 ft 167 kts 353°
2026-04-25 17:14 40.77061 -111.97300 4408 ft 152 kts 348°
2026-04-25 17:14 40.78040 -111.97395 4282 ft 136 kts 345°
2026-04-25 17:15 40.78859 -111.97406 4236 ft 85 kts 358°